Погода в Шаталово

Россия / Смоленская область     54°20′01″N   32°26′50″E
темп.,
°C
ветер,
м/с
пор.,
м/с
влажн.,
%
обл.,
%
осадки,
мм/ч
давл.,
гПа
погр.,
м
17 мая, вт
вт1700:00+4зсз49825 0.0 1013147
03:00+3зсз410855 0.0 1013166
06:00+3зсз410845 0.0 1012227
09:00+9сз57658 0.0 1012666
12:00+11сз565310 0.3 10111684
15:00+11сз675798 1.5 10101690
18:00+11сз566398 0.4 10101242
21:00+6с3687100 0.8 1011132
18 мая, ср
ср1800:00+6ссз5894100 0.5 10111054
03:00+5ссз61196100 0.8 1012531
06:00+5с71190100 0.0 1014648
09:00+7с6108599 0.0 1017746
12:00+11с796380 0.0 10171511
15:00+12ссз7963100 0.1 10191467
18:00+10ссз6107296 0.0 1019827
21:00+6сз35836 0.1 102176
19 мая, чт
чт1900:00+5зсз35865 0.0 102169
03:00+4з359043 0.0 102181
06:00+5зсз4118696 0.0 1021229
09:00+10зсз71261100 0.0 1020617
12:00+13зсз7957100 0.0 1020884
15:00+15сз7105399 0.0 10201524
18:00+15зсз696598 0.0 10191033
21:00+10сз348259 0.2 102046
20 мая, пт
пт2000:00+10ссз237892 0.0 102159
03:00+10зсз2280100 0.0 102117
06:00+10юз2383100 0.0 102080
09:00+11юз2481100 0.0 1020207
12:00+11юз4793100 1.9 1018425
15:00+14ююз577796 4.1 1016757
18:00+12ю2495100 1.8 1013116
21:00+11юв4995100 2.6 1010260
21 мая, сб
сб2100:00+10ююз369847 2.1 1007148
03:00+10зсз499836 2.1 1007227
06:00+10зсз379895 0.0 1007198
09:00+13сз3480100 0.0 1006572
12:00+14з4474100 0.2 1005876
15:00+12зсз3486100 0.6 1006306
18:00+14з3474100 0.1 1004932
21:00+11ююз1192100 1.6 100415